Charleston, WV

11:50 PM EST on February 10, 2016 (GMT -0500)
Yeager Airport

Weather History for KCRW - October, 2013

Change the Weather History Date:

Thursday, October 24, 2013

  Actual Average Record
Temperature  
Mean Temperature 41 °F 54 °F  
Max Temperature 45 °F 65 °F 86 °F (1920)
Min Temperature 36 °F 43 °F 20 °F (1969)
Degree Days  
Heating Degree Days 24 11  
Month to date heating degree days 162 196  
Since 1 July heating degree days 204 254  
Cooling Degree Days 0 0  
Month to date cooling degree days 39 16  
Year to date cooling degree days 1120 1089  
Moisture  
Dew Point 36 °F    
Average Humidity 79    
Maximum Humidity 100    
Minimum Humidity 58    
Precipitation  
Precipitation T in 0.09 in 1.25 in (2007)
Month to date precipitation 0.96 2.01  
Year to date precipitation 37.49 36.37  
Snow  
Snow T in - - ()
Month to date snowfall T  
Since 1 September snowfall T  
Snow Depth 0.00 in    
Sea Level Pressure  
Sea Level Pressure 30.13 in    
Wind  
Wind Speed 5 mph (WSW)    
Max Wind Speed 16 mph    
Max Gust Speed 22 mph    
Visibility 9 miles    
Events Rain    
T = Trace of Precipitation, MM = Missing Value Source: NWS Daily Summary

Daily Weather History Graph

Daily Weather History Graph

Search for Another Location

Airport or City:

Trip Planner

Search our weather history database for the weather conditions in past years. The results will help you decide how hot, cold, wet, or windy it might be!

Date:

Astronomy

Oct. 24, 2013 Rise Set
Actual Time 7:44 AM EDT 6:35 PM EDT
Civil Twilight 7:17 AM EDT 7:02 PM EDT
Nautical Twilight 6:46 AM EDT 7:33 PM EDT
Astronomical Twilight 6:15 AM EDT 8:04 PM EDT
Moon 11:00 PM EDT (10/24) 12:42 PM EDT (10/24)
Length of Visible Light 11h 45m
Length of Day
10h 51m
Waning Gibbous, 71% of the Moon is Illuminated
Oct 24
Waning Gibbous
Oct 26
Last Quarter
Nov 3
New
Nov 10
First Quarter
Nov 17
Full

Hourly Weather History & Observations

Time (EDT) Temp. Windchill Dew Point Humidity Pressure Visibility Wind Dir Wind Speed Gust Speed Precip Events Conditions
12:54 AM 37.9 °F 33.5 °F 37.0 °F 97% 30.04 in 10.0 mi WSW 5.8 mph - N/A   Overcast
1:54 AM 39.0 °F 34.0 °F 37.0 °F 93% 30.06 in 10.0 mi WSW 6.9 mph - N/A   Overcast
2:54 AM 39.0 °F 32.8 °F 37.0 °F 93% 30.06 in 10.0 mi WSW 9.2 mph - 0.00 in Rain Light Rain
3:54 AM 39.0 °F 33.4 °F 36.0 °F 89% 30.07 in 10.0 mi SW 8.1 mph - 0.00 in Rain Light Rain
4:54 AM 37.9 °F 31.5 °F 36.0 °F 93% 30.07 in 10.0 mi SSW 9.2 mph - 0.00 in Rain Light Rain
5:54 AM 37.9 °F 33.5 °F 37.0 °F 97% 30.09 in 10.0 mi SW 5.8 mph - 0.00 in   Overcast
6:28 AM 37.4 °F 32.1 °F 37.4 °F 100% 30.07 in 10.0 mi WSW 6.9 mph - 0.00 in Rain Light Rain
6:54 AM 37.9 °F 32.7 °F 37.0 °F 97% 30.09 in 10.0 mi WSW 6.9 mph - 0.00 in Rain Light Rain
7:54 AM 37.9 °F 34.4 °F 37.0 °F 97% 30.10 in 6.0 mi WSW 4.6 mph - 0.00 in Rain Light Rain
8:48 AM 37.4 °F - 37.4 °F 100% 30.10 in 6.0 mi Calm Calm - 0.00 in   Overcast
8:54 AM 37.9 °F - 37.0 °F 97% 30.12 in 6.0 mi Calm Calm - 0.00 in   Overcast
9:54 AM 39.0 °F 33.4 °F 37.0 °F 93% 30.13 in 6.0 mi WSW 8.1 mph - 0.00 in   Light Drizzle
10:54 AM 42.1 °F 36.6 °F 37.9 °F 85% 30.13 in 9.0 mi WSW 9.2 mph - 0.00 in   Overcast
11:54 AM 43.0 °F 38.2 °F 35.1 °F 74% 30.13 in 10.0 mi WNW 8.1 mph - N/A   Overcast
12:24 PM 42.8 °F 38.0 °F 35.6 °F 76% 30.11 in 10.0 mi WSW 8.1 mph - N/A   Overcast
12:39 PM 42.8 °F 38.0 °F 33.8 °F 70% 30.11 in 10.0 mi West 8.1 mph 17.3 mph N/A   Overcast
12:54 PM 42.1 °F 36.6 °F 34.0 °F 73% 30.13 in 10.0 mi WSW 9.2 mph - 0.00 in Rain Light Rain
1:54 PM 41.0 °F 36.4 °F 34.0 °F 76% 30.12 in 10.0 mi West 6.9 mph - 0.00 in Rain Light Rain
2:54 PM 43.0 °F 38.8 °F 33.1 °F 68% 30.13 in 10.0 mi SW 6.9 mph - 0.00 in Rain Light Rain
3:32 PM 42.8 °F 38.6 °F 32.0 °F 66% 30.11 in 7.0 mi WNW 6.9 mph 16.1 mph 0.00 in Rain Light Rain
3:37 PM 41.0 °F 34.7 °F 33.8 °F 76% 30.12 in 6.0 mi West 10.4 mph 16.1 mph 0.00 in   Small Hail
3:54 PM 43.0 °F 41.3 °F 34.0 °F 71% 30.14 in 10.0 mi West 3.5 mph - 0.00 in   Mostly Cloudy
4:54 PM 44.1 °F 39.0 °F 30.9 °F 60% 30.14 in 10.0 mi SW 9.2 mph - N/A   Mostly Cloudy
5:54 PM 43.0 °F 38.8 °F 30.9 °F 62% 30.15 in 10.0 mi WSW 6.9 mph - N/A   Mostly Cloudy
6:54 PM 42.1 °F 40.2 °F 34.0 °F 73% 30.17 in 10.0 mi Variable 3.5 mph - N/A   Mostly Cloudy
7:54 PM 39.9 °F - 37.0 °F 89% 30.19 in 10.0 mi Calm Calm - N/A   Mostly Cloudy
8:54 PM 39.9 °F - 35.1 °F 83% 30.20 in 10.0 mi Calm Calm - N/A   Overcast
9:54 PM 39.0 °F 36.8 °F 37.0 °F 93% 30.22 in 10.0 mi South 3.5 mph - N/A   Overcast
10:54 PM 37.9 °F - 37.0 °F 97% 30.22 in 10.0 mi Calm Calm - N/A   Overcast
11:54 PM 37.0 °F - 36.0 °F 96% 30.23 in 10.0 mi Calm Calm - N/A   Mostly Cloudy